Retour au catalogue

STARLINK-4776

ActifCommunicationsVLEO
NORAD 53837·PAYLOAD·🇺🇸 United States

Lancé Sep 19, 2022 depuis Cape Canaveral Space Force Station

Loading…

Prochains Passages (prochaines 24 heures)

TLE

FraisSource: CelesTrak SupGP

Époque: Sep 14, 2026, 21:05 UTC

1 53837C 22114V   26257.87895833 -.00036546  00000+0 -22917-2 0  2574
2 53837  53.1592 173.8978 0001394  92.2244  16.1587 15.08856308    19

Suivez STARLINK-4776 en temps réel avec AllMySat

Download on the App Store